Weather History for Christchurch, New Zealand

Change the Weather History Date:

Wednesday, May 22, 2013

  Actual Average Record
Temperature  
Mean Temperature 52 °F -  
Max Temperature 57 °F 55 °F 68 °F (2002)
Min Temperature 48 °F 39 °F 26 °F (2012)
Degree Days  
Heating Degree Days 12    
Growing Degree Days 2 (Base 50)    
Moisture  
Dew Point 50 °F    
Average Humidity 94    
Maximum Humidity 100    
Minimum Humidity 77    
Precipitation  
Precipitation 0.00 in - - ()
Sea Level Pressure  
Sea Level Pressure 29.50 in    
Wind  
Wind Speed 3 mph ()    
Max Wind Speed 7 mph    
Max Gust Speed -    
Visibility 6.1 miles    
Events Fog    
Averages and records for this station are not official NWS values.
T = Trace of Precipitation, MM = Missing Value Source: Averaged Metar Reports

Daily Weather History Graph

Daily Weather History Graph

Search for Another Location

Airport:

Trip Planner

Search our weather history database for the weather conditions in past years. The results will help you decide how hot, cold, wet, or windy it might be!

Date:

Astronomy

May. 22, 2013 Rise Set
Actual Time 7:43 AM NZST 5:08 PM NZST
Civil Twilight 7:12 AM NZST 5:40 PM NZST
Nautical Twilight 6:36 AM NZST 6:15 PM NZST
Astronomical Twilight 6:02 AM NZST 6:49 PM NZST
Moon 3:01 PM NZST (5/22) 3:44 AM NZST (5/22)
Length of Visible Light 10h 28m
Length of Day
9h 25m
Waxing Gibbous, 86% of the Moon is Illuminated
May 22
Waxing Gibbous
May 25
Full
Jun 1
Last Quarter
Jun 9
New
Jun 17
First Quarter

Hourly Weather History & Observations

Time (NZST) Temp. Dew Point Humidity Pressure Visibility Wind Dir Wind Speed Gust Speed Precip Events Conditions
12:00 AM 51.8 °F 51.8 °F 100% 29.65 in 6.2 mi NE 2.3 mph - N/A   Mostly Cloudy
1:00 AM 50.0 °F 50.0 °F 100% 29.62 in 6.2 mi North 1.2 mph - N/A   Mostly Cloudy
2:00 AM 51.8 °F 51.8 °F 100% 29.62 in 6.2 mi NNE 2.3 mph - N/A   Mostly Cloudy
3:00 AM 51.8 °F 51.8 °F 100% 29.59 in 6.2 mi NE 3.5 mph - N/A   Mostly Cloudy
4:00 AM 51.8 °F 51.8 °F 100% 29.56 in 5.0 mi North 2.3 mph - N/A   Drizzle
5:00 AM 51.8 °F 51.8 °F 100% 29.56 in 5.0 mi North 3.5 mph - N/A   Drizzle
6:00 AM 51.8 °F 50.0 °F 94% 29.53 in 6.2 mi North 3.5 mph - N/A   Light Drizzle
7:00 AM 50.0 °F 50.0 °F 100% 29.53 in 6.2 mi NNE 1.2 mph - N/A   Mostly Cloudy
8:00 AM 50.0 °F 50.0 °F 100% 29.53 in 6.2 mi NE 2.3 mph - N/A Fog Mostly Cloudy
9:00 AM 50.0 °F 50.0 °F 100% 29.53 in 6.2 mi WNW 1.2 mph - N/A Fog Mostly Cloudy
10:00 AM 51.8 °F 51.8 °F 100% 29.53 in 6.2 mi Calm Calm - N/A Fog Mostly Cloudy
11:00 AM 53.6 °F 51.8 °F 94% 29.50 in 6.2 mi ENE 3.5 mph - N/A Fog Mostly Cloudy
12:00 PM 53.6 °F 50.0 °F 88% 29.50 in 6.2 mi ENE 5.8 mph - N/A   Mostly Cloudy
1:00 PM 55.4 °F 51.8 °F 88% 29.44 in 6.2 mi ENE 3.5 mph - N/A   Mostly Cloudy
2:00 PM 57.2 °F 51.8 °F 82% 29.44 in 6.2 mi ENE 5.8 mph - N/A   Mostly Cloudy
3:00 PM 57.2 °F 50.0 °F 77% 29.42 in 6.2 mi East 4.6 mph - N/A   Mostly Cloudy
4:00 PM 55.4 °F 48.2 °F 77% 29.42 in 6.2 mi East 6.9 mph - N/A   Mostly Cloudy
5:00 PM 53.6 °F 50.0 °F 88% 29.42 in 6.2 mi ENE 6.9 mph - N/A   Mostly Cloudy
6:00 PM 51.8 °F 48.2 °F 88% 29.42 in 6.2 mi SSW 1.2 mph - N/A   Mostly Cloudy
7:00 PM 51.8 °F 48.2 °F 88% 29.42 in 6.2 mi West 1.2 mph - N/A   Mostly Cloudy
8:00 PM 50.0 °F 48.2 °F 94% 29.42 in 6.2 mi West 5.8 mph - N/A   Partly Cloudy
9:00 PM 48.2 °F 48.2 °F 100% 29.42 in 6.2 mi West 4.6 mph - N/A   Partly Cloudy
10:00 PM 50.0 °F 48.2 °F 94% 29.42 in 6.2 mi WSW 4.6 mph - N/A   Partly Cloudy
11:00 PM 50.0 °F 48.2 °F 94% 29.42 in 6.2 mi WSW 6.9 mph - N/A   Partly Cloudy